Iridium 14 - Orbit

View from above orbital plane
View from above orbital plane
View from above satellite
View from above satellite

Ground track
Ground track

The orbit data is extracted from the following two-line orbital elements,

1 25777U 99032A   13139.45451037  .00000458  00000-0  10167-3 0  4324
2 25777 086.5142 126.6662 0002497 103.4894 059.0528 14.54938652740171
Epoch (UTC): 19 May 2013 10:54:29
Eccentricity: 0.0002497
inclination: 86.5142°
perigee height: 708 km
apogee height: 711 km
right ascension of ascending node: 126.6662°
argument of perigee: 103.4894°
revolutions per day: 14.54938652
mean anomaly at epoch: 59.0528°
orbit number at epoch: 74017

The dashed part of the orbit path shows where the satellite is in the earth's shadow,  

Developed and maintained by Chris Peat, Heavens-Above GmbH. Please read the updated FAQ before sending e-mail. Imprint. DLR